User: anonymous   Login
Location: Caserta
(41.0670°N, 14.3330°E)
Time: 13:35:56
(UTC+02:00)
Language:

STARLINK-1352 - Orbit

View from above orbital plane
View from above orbital plane
View from above satellite
View from above satellite

Ground track
Ground track

The orbit data is extracted from the following two-line orbital elements,

1 45536C 20025F   21167.06998446  .00002562  00000-0  17166-3 0  1671
2 45536  53.0560 302.2149 0001302 106.6186 302.3980 15.06391444    12
Epoch (UTC): 16 June 2021 01:40:46
Eccentricity: 0.0001302
inclination: 53.0560°
perigee height: 546 km
apogee height: 548 km
right ascension of ascending node: 302.2149°
argument of perigee: 106.6186°
revolutions per day: 15.06391444
mean anomaly at epoch: 302.3980°
orbit number at epoch: 1

The dashed part of the orbit path shows where the satellite is in the earth's shadow,  

DLR